TimeCST,TemperatureF,Dew PointF,Humidity,Sea Level PressureIn,VisibilityMPH,Wind Direction,Wind SpeedMPH,Gust SpeedMPH,PrecipitationIn,Events,Conditions,WindDirDegrees,DateUTC
12:10 AM,32.0,24.8,75,29.83,10.0,NW,23.0,-,N/A,,Overcast,320,2001-01-31 06:10:00
12:52 AM,30.2,21.2,69,29.84,10.0,NNW,25.3,29.9,N/A,,Overcast,330,2001-01-31 06:52:00
1:13 AM,30.2,19.4,64,29.85,10.0,NNW,21.9,-,N/A,,Scattered Clouds,330,2001-01-31 07:13:00
1:52 AM,28.4,19.4,69,29.87,10.0,NNW,18.4,-,N/A,,Clear,330,2001-01-31 07:52:00
2:10 AM,28.4,17.6,64,29.87,10.0,NW,15.0,-,N/A,,Clear,320,2001-01-31 08:10:00
2:30 AM,28.4,17.6,64,29.88,10.0,NW,15.0,20.7,N/A,,Clear,320,2001-01-31 08:30:00
2:52 AM,26.6,17.6,69,29.90,10.0,NW,13.8,-,N/A,,Clear,310,2001-01-31 08:52:00
3:10 AM,26.6,17.6,69,29.91,10.0,WNW,11.5,-,N/A,,Clear,300,2001-01-31 09:10:00
3:31 AM,26.6,15.8,64,29.91,10.0,WNW,13.8,-,N/A,,Clear,300,2001-01-31 09:31:00
3:50 AM,26.6,17.6,69,29.92,10.0,NW,15.0,-,N/A,,Clear,310,2001-01-31 09:50:00
4:11 AM,28.4,17.6,64,29.93,10.0,NW,17.3,-,N/A,,Clear,310,2001-01-31 10:11:00
4:30 AM,28.4,17.6,64,29.94,10.0,NW,18.4,-,N/A,,Clear,310,2001-01-31 10:30:00
4:52 AM,28.4,17.6,64,29.95,10.0,NW,17.3,-,N/A,,Clear,310,2001-01-31 10:52:00
5:10 AM,28.4,17.6,64,29.96,10.0,NW,17.3,-,N/A,,Clear,320,2001-01-31 11:10:00
5:53 AM,28.4,15.8,59,29.98,10.0,NW,16.1,-,N/A,,Clear,310,2001-01-31 11:53:00
6:12 AM,28.4,15.8,59,29.98,10.0,WNW,13.8,-,N/A,,Clear,300,2001-01-31 12:12:00
6:30 AM,28.4,14.0,55,29.99,10.0,WNW,11.5,-,N/A,,Clear,300,2001-01-31 12:30:00
6:57 AM,26.6,14.0,59,30.00,10.0,WNW,9.2,-,N/A,,Clear,290,2001-01-31 12:57:00
7:30 AM,26.6,15.8,64,30.01,10.0,West,8.1,-,N/A,,Clear,270,2001-01-31 13:30:00
7:50 AM,26.6,15.8,64,30.01,10.0,West,10.4,-,N/A,,Clear,280,2001-01-31 13:50:00
8:10 AM,26.6,14.0,59,30.02,10.0,West,10.4,-,N/A,,Clear,270,2001-01-31 14:10:00
8:30 AM,24.8,14.0,64,30.02,10.0,West,8.1,-,N/A,,Clear,260,2001-01-31 14:30:00
8:50 AM,24.8,14.0,64,30.03,10.0,West,10.4,-,N/A,,Clear,270,2001-01-31 14:50:00
9:15 AM,24.8,12.2,59,30.04,10.0,West,10.4,-,N/A,,Clear,280,2001-01-31 15:15:00
9:38 AM,26.6,14.0,59,30.04,10.0,West,11.5,-,N/A,,Clear,270,2001-01-31 15:38:00
9:50 AM,26.6,14.0,59,30.05,10.0,West,12.7,-,N/A,,Clear,280,2001-01-31 15:50:00
10:12 AM,26.6,15.8,64,30.05,10.0,West,10.4,-,N/A,,Clear,270,2001-01-31 16:12:00
10:30 AM,28.4,15.8,59,30.05,10.0,West,12.7,-,N/A,,Clear,270,2001-01-31 16:30:00
10:50 AM,28.4,15.8,59,30.05,10.0,West,13.8,-,N/A,,Clear,270,2001-01-31 16:50:00
11:12 AM,28.4,15.8,59,30.06,10.0,West,11.5,-,N/A,,Clear,270,2001-01-31 17:12:00
11:32 AM,28.4,15.8,59,30.06,10.0,West,12.7,-,N/A,,Clear,260,2001-01-31 17:32:00
11:50 AM,28.4,15.8,59,30.06,10.0,West,12.7,-,N/A,,Clear,260,2001-01-31 17:50:00
12:10 PM,30.2,17.6,60,30.05,10.0,West,13.8,-,N/A,,Clear,260,2001-01-31 18:10:00
12:30 PM,30.2,17.6,60,30.04,10.0,West,12.7,-,N/A,,Clear,260,2001-01-31 18:30:00
1:12 PM,30.2,15.8,55,30.03,10.0,West,12.7,-,N/A,,Clear,260,2001-01-31 19:12:00
1:30 PM,32.0,17.6,55,30.03,10.0,West,12.7,-,N/A,,Clear,260,2001-01-31 19:30:00
1:52 PM,32.0,17.6,55,30.02,10.0,West,13.8,-,N/A,,Clear,260,2001-01-31 19:52:00
2:10 PM,32.0,19.4,60,30.02,10.0,West,12.7,-,N/A,,Clear,270,2001-01-31 20:10:00
2:50 PM,33.8,19.4,56,30.02,10.0,West,11.5,-,N/A,,Clear,270,2001-01-31 20:50:00
3:12 PM,33.8,21.2,60,30.03,10.0,West,11.5,-,N/A,,Clear,260,2001-01-31 21:12:00
3:52 PM,33.8,19.4,56,30.04,10.0,West,8.1,-,N/A,,Clear,260,2001-01-31 21:52:00
4:10 PM,33.8,19.4,56,30.04,10.0,West,9.2,-,N/A,,Clear,260,2001-01-31 22:10:00
4:32 PM,33.8,19.4,56,30.04,10.0,West,9.2,-,N/A,,Clear,260,2001-01-31 22:32:00
4:52 PM,32.0,19.4,60,30.05,10.0,West,8.1,-,N/A,,Clear,260,2001-01-31 22:52:00
5:11 PM,30.2,19.4,64,30.05,10.0,West,8.1,-,N/A,,Clear,260,2001-01-31 23:11:00
5:33 PM,30.2,17.6,60,30.06,10.0,WSW,6.9,-,N/A,,Clear,250,2001-01-31 23:33:00
5:58 PM,26.6,17.6,69,30.07,10.0,West,6.9,-,N/A,,Clear,260,2001-01-31 23:58:00
6:10 PM,26.6,17.6,69,30.07,10.0,WSW,6.9,-,N/A,,Clear,250,2001-02-01 00:10:00
6:50 PM,23.0,15.8,74,30.08,10.0,West,5.8,-,N/A,,Clear,260,2001-02-01 00:50:00
7:32 PM,24.8,15.8,69,30.09,10.0,West,8.1,-,N/A,,Clear,270,2001-02-01 01:32:00
7:50 PM,24.8,15.8,69,30.09,10.0,West,8.1,-,N/A,,Clear,260,2001-02-01 01:50:00
8:12 PM,23.0,15.8,74,30.10,10.0,West,8.1,-,N/A,,Clear,270,2001-02-01 02:12:00
8:30 PM,21.2,14.0,74,30.10,10.0,WNW,6.9,-,N/A,,Clear,290,2001-02-01 02:30:00
8:52 PM,19.4,14.0,80,30.10,10.0,WNW,6.9,-,N/A,,Clear,290,2001-02-01 02:52:00
9:10 PM,21.2,14.0,74,30.10,10.0,NW,6.9,-,N/A,,Clear,320,2001-02-01 03:10:00
9:50 PM,17.6,12.2,79,30.10,10.0,West,6.9,-,N/A,,Clear,270,2001-02-01 03:50:00
10:12 PM,17.6,12.2,79,30.10,10.0,NNE,8.1,-,N/A,,Clear,20,2001-02-01 04:12:00
10:50 PM,15.8,10.4,79,30.10,10.0,NW,4.6,-,N/A,,Clear,310,2001-02-01 04:50:00
11:12 PM,15.8,12.2,86,30.10,10.0,Calm,Calm,-,N/A,,Clear,0,2001-02-01 05:12:00
11:33 PM,15.8,10.4,79,30.10,10.0,Calm,Calm,-,N/A,,Clear,0,2001-02-01 05:33:00
11:50 PM,14.0,8.6,79,30.10,10.0,Calm,Calm,-,N/A,,Clear,0,2001-02-01 05:50:00